DW7628 Weather Reports


Display with metric or nautical units.
time (UTC)temp
F
wind
direction
speed
MPH
gust
MPH
rain 1hr
in
rain 24hr
in
rain mn
in
humidity
%
barometer
mb
20260906173805 85 49 0.0 0.0 0.00 0.00 0.00 39 1016.1
20260906173305 85 38 0.0 0.0 0.00 0.00 0.00 39 1016.1
20260906172806 85 81 0.0 0.0 0.00 0.00 0.00 38 1016.0
20260906172306 85 39 0.0 0.0 0.00 0.00 0.00 38 1016.0
20260906171805 86 70 0.0 0.0 0.00 0.00 0.00 38 1016.0
20260906170806 86 67 0.0 0.0 0.00 0.00 0.00 37 1015.8
20260906170305 87 148 0.0 0.0 0.00 0.00 0.00 37 1015.8
20260906165806 87 34 0.0 0.0 0.00 0.00 0.00 36 1015.7
20260906165306 87 359 0.0 0.0 0.00 0.00 0.00 36 1015.7
20260906164805 88 71 0.0 0.0 0.00 0.00 0.00 36 1015.7
20260906164306 88 29 0.0 0.0 0.00 0.00 0.00 36 1015.7
20260906163305 88 282 0.0 0.0 0.00 0.00 0.00 40 1015.7
20260906162805 88 196 0.0 0.0 0.00 0.00 0.00 39 1015.7
20260906161306 89 183 0.0 0.0 0.00 0.00 0.00 38 1015.5
20260906155806 90 271 0.0 0.0 0.00 0.00 0.00 37 1015.5
20260906155307 90 164 0.0 0.0 0.00 0.00 0.00 36 1015.5
20260906154805 91 284 0.0 0.0 0.00 0.00 0.00 36 1015.6
20260906153306 92 285 0.0 0.0 0.00 0.00 0.00 35 1015.5
20260906152805 92 293 0.0 0.0 0.00 0.00 0.00 35 1015.4
20260906152307 92 283 0.0 0.0 0.00 0.00 0.00 34 1015.6
20260906151806 92 161 0.0 0.0 0.00 0.00 0.00 34 1015.6
20260906150805 92 214 0.0 0.0 0.00 0.00 0.00 34 1015.5
20260906150305 93 272 0.0 0.0 0.00 0.00 0.00 33 1015.6
20260906145805 93 279 0.0 0.0 0.00 0.00 0.00 33 1015.5
20260906145307 93 245 0.0 0.0 0.00 0.00 0.00 32 1015.5
20260906144805 93 240 0.0 0.0 0.00 0.00 0.00 32 1015.4
20260906144306 93 151 0.0 0.0 0.00 0.00 0.00 32 1015.4
20260906143805 93 246 0.0 0.0 0.00 0.00 0.00 32 1015.3
20260906143306 93 6 0.0 0.0 0.00 0.00 0.00 32 1015.3
20260906142805 92 216 0.0 0.0 0.00 0.00 0.00 32 1015.3
20260906142308 92 277 0.0 0.0 0.00 0.00 0.00 33 1015.4
20260906141805 92 145 0.0 0.0 0.00 0.00 0.00 33 1015.4
20260906141306 93 126 0.0 0.0 0.00 0.00 0.00 32 1015.4
20260906140805 94 267 0.0 0.0 0.00 0.00 0.00 32 1015.4
20260906140305 94 274 0.0 0.0 0.00 0.00 0.00 33 1015.3
20260906135806 94 135 0.0 0.0 0.00 0.00 0.00 33 1015.3
20260906135306 94 288 0.0 0.0 0.00 0.00 0.00 32 1015.4
20260906134805 95 130 0.0 0.0 0.00 0.00 0.00 31 1015.4
20260906134304 95 139 0.0 0.0 0.00 0.00 0.00 29 1015.4
20260906133806 95 151 0.0 0.0 0.00 0.00 0.00 28 1015.5
20260906133305 95 264 0.0 0.0 0.00 0.00 0.00 29 1015.5
20260906132805 96 61 0.0 0.0 0.00 0.00 0.00 29 1015.5
20260906132306 97 213 0.0 0.0 0.00 0.00 0.00 21 1015.6
20260906131805 97 212 0.0 0.0 0.00 0.00 0.00 20 1015.6
20260906131304 97 347 0.0 0.0 0.00 0.00 0.00 20 1015.7
20260906130805 97 279 0.0 0.0 0.00 0.00 0.00 19 1015.7
20260906130305 96 253 0.0 0.0 0.00 0.00 0.00 20 1015.8
20260906125805 96 334 0.0 0.0 0.00 0.00 0.00 20 1015.8
20260906125306 96 213 0.0 0.0 0.00 0.00 0.00 20 1015.9
20260906124805 95 225 0.0 0.0 0.00 0.00 0.00 21 1015.9
20260906124305 95 139 0.0 0.0 0.00 0.00 0.00 21 1015.9
20260906121805 95 8 0.0 0.0 0.00 0.00 0.00 21 1016.0
20260906121305 95 77 0.0 0.0 0.00 0.00 0.00 21 1016.1
20260906120805 95 121 0.0 0.0 0.00 0.00 0.00 21 1016.1
20260906120305 94 88 0.0 0.0 0.00 0.00 0.00 21 1016.1
20260906115805 94 210 0.0 0.0 0.00 0.00 0.00 22 1016.1
20260906115306 94 4 0.0 0.0 0.00 0.00 0.00 22 1016.2
20260906114805 94 211 0.0 0.0 0.00 0.00 0.00 22 1016.1
20260906114305 94 248 0.0 0.0 0.00 0.00 0.00 23 1016.2
20260906113805 94 55 0.0 0.0 0.00 0.00 0.00 22 1016.2
20260906113306 94 225 0.0 0.0 0.00 0.00 0.00 22 1016.2
20260906112804 95 1 0.0 0.0 0.00 0.00 0.00 22 1016.2
20260906112306 94 134 0.0 0.0 0.00 0.00 0.00 22 1016.2
20260906111305 94 284 0.0 0.0 0.00 0.00 0.00 23 1016.4
20260906110805 94 260 0.0 0.0 0.00 0.00 0.00 22 1016.4
20260906110305 94 105 0.0 0.0 0.00 0.00 0.00 22 1016.4
20260906105306 93 291 0.0 0.0 0.00 0.00 0.00 23 1016.5
20260906104805 93 204 0.0 0.0 0.00 0.00 0.00 22 1016.6
20260906104304 93 125 0.0 0.0 0.00 0.00 0.00 23 1016.6
20260906103805 93 58 0.0 0.0 0.00 0.00 0.00 23 1016.7
20260906103305 93 286 0.0 0.0 0.00 0.00 0.00 23 1016.8
20260906102805 93 174 0.0 0.0 0.00 0.00 0.00 23 1016.9
20260906102306 93 138 0.0 0.0 0.00 0.00 0.00 23 1016.9
20260906101804 93 54 0.0 0.0 0.00 0.00 0.00 23 1016.9
20260906101306 93 139 0.0 0.0 0.00 0.00 0.00 22 1016.9
20260906100804 92 180 0.0 0.0 0.00 0.00 0.00 23 1017.0
20260906100305 92 185 0.0 0.0 0.00 0.00 0.00 24 1017.0
20260906095806 92 225 0.0 0.0 0.00 0.00 0.00 24 1017.1
20260906095306 92 229 0.0 0.0 0.00 0.00 0.00 24 1017.1
20260906094805 92 222 0.0 0.0 0.00 0.00 0.00 25 1017.0
20260906094305 91 203 0.0 0.0 0.00 0.00 0.00 24 1017.1
20260906093305 91 219 0.0 0.0 0.00 0.00 0.00 25 1017.1
20260906092805 91 248 0.0 0.0 0.00 0.00 0.00 25 1017.1
20260906092306 91 58 0.0 0.0 0.00 0.00 0.00 25 1017.1
20260906091804 90 227 0.0 0.0 0.00 0.00 0.00 26 1017.1
20260906091305 89 9 0.0 0.0 0.00 0.00 0.00 27 1017.2
20260906090804 90 15 0.0 0.0 0.00 0.00 0.00 27 1017.2
20260906090304 90 134 0.0 0.0 0.00 0.00 0.00 27 1017.2
20260906085306 89 192 0.0 0.0 0.00 0.00 0.00 28 1017.2
20260906084805 89 216 0.0 0.0 0.00 0.00 0.00 29 1017.2
20260906084305 89 306 0.0 0.0 0.00 0.00 0.00 30 1017.2
20260906083306 88 63 0.0 0.0 0.00 0.00 0.00 31 1017.2
20260906082804 88 171 0.0 0.0 0.00 0.00 0.00 32 1017.2
20260906082306 87 181 0.0 0.0 0.00 0.00 0.00 32 1017.1
20260906080805 86 17 0.0 0.0 0.00 0.00 0.00 33 1017.0
20260906080305 85 160 0.0 0.0 0.00 0.00 0.00 35 1016.9
20260906075805 85 50 0.0 0.0 0.00 0.00 0.00 35 1016.9
20260906074804 84 40 0.0 0.0 0.00 0.00 0.00 36 1016.8
20260906074305 84 1 0.0 0.0 0.00 0.00 0.00 36 1016.8
20260906073804 84 48 0.0 0.0 0.00 0.00 0.00 37 1016.8
20260906073305 83 5 0.0 0.0 0.00 0.00 0.00 38 1016.7
20260906072804 83 7 0.0 0.0 0.00 0.00 0.00 37 1016.7
20260906072306 83 12 0.0 0.0 0.00 0.00 0.00 37 1016.6
20260906071804 83 27 0.0 0.0 0.00 0.00 0.00 37 1016.5
20260906071304 83 313 0.0 0.0 0.00 0.00 0.00 36 1016.6
20260906070805 83 15 0.0 0.0 0.00 0.00 0.00 36 1016.5
20260906070305 82 35 0.0 0.0 0.00 0.00 0.00 37 1016.5
20260906065804 82 4 0.0 0.0 0.00 0.00 0.00 36 1016.4
20260906065306 82 65 0.0 0.0 0.00 0.00 0.00 37 1016.5
20260906063804 80 3 0.0 0.0 0.00 0.00 0.00 40 1016.4
20260906062804 79 32 0.0 0.0 0.00 0.00 0.00 42 1016.5
20260906061804 78 8 0.0 0.0 0.00 0.00 0.00 43 1016.4
20260906061304 78 32 0.0 0.0 0.00 0.00 0.00 43 1016.4
20260906060305 77 1 0.0 0.0 0.00 0.00 0.00 47 1016.4
20260906055804 76 21 0.0 0.0 0.00 0.00 0.00 48 1016.3
20260906055306 75 9 0.0 0.0 0.00 0.00 0.00 49 1016.3
20260906054804 75 49 0.0 0.0 0.00 0.00 0.00 51 1016.3
20260906054304 74 51 0.0 0.0 0.00 0.00 0.00 50 1016.2
20260906053805 74 48 0.0 0.0 0.00 0.00 0.00 51 1016.2
20260906053304 74 30 0.0 0.0 0.00 0.00 0.00 50 1016.1
20260906052805 74 41 0.0 0.0 0.00 0.00 0.00 50 1016.1
20260906052306 74 41 0.0 0.0 0.00 0.00 0.00 50 1016.1
20260906051804 74 16 0.0 0.0 0.00 0.00 0.00 49 1016.0
20260906050804 74 358 0.0 0.0 0.00 0.00 0.00 50 1016.0
20260906050304 74 356 0.0 0.0 0.00 0.00 0.00 51 1015.9
20260906045805 74 95 0.0 0.0 0.00 0.00 0.00 51 1015.9
20260906045306 74 88 0.0 0.0 0.00 0.00 0.00 51 1016.0
20260906044804 74 4 0.0 0.0 0.00 0.00 0.00 51 1016.0
20260906044304 74 9 0.0 0.0 0.00 0.00 0.00 50 1016.0
20260906043804 74 20 0.0 0.0 0.00 0.00 0.00 50 1015.9
20260906043305 74 5 0.0 0.0 0.00 0.00 0.00 49 1015.9
20260906042804 74 300 0.0 0.0 0.00 0.00 0.00 48 1015.9
20260906042306 74 238 0.0 0.0 0.00 0.00 0.00 47 1015.9
20260906041804 74 231 0.0 0.0 0.00 0.00 0.00 48 1015.9
20260906041305 73 233 0.0 0.0 0.00 0.00 0.00 49 1015.8
20260906035805 73 146 0.0 0.0 0.00 0.00 0.00 53 1015.7
20260906035306 73 146 0.0 0.0 0.00 0.00 0.00 53 1015.7
20260906034804 74 114 0.0 0.0 0.00 0.00 0.00 55 1015.6
20260906034304 74 75 0.0 0.0 0.00 0.00 0.00 55 1015.6
20260906033805 74 124 0.0 0.0 0.00 0.00 0.00 57 1015.6
20260906032804 74 25 0.0 0.0 0.00 0.00 0.00 57 1015.7
20260906032306 74 46 0.0 0.0 0.00 0.00 0.00 57 1015.7
20260906031803 74 68 0.0 0.0 0.00 0.00 0.00 57 1015.7
20260906031304 74 55 0.0 0.0 0.00 0.00 0.00 57 1015.7
20260906030805 74 65 0.0 0.0 0.00 0.00 0.00 56 1015.7
20260906030304 74 8 0.0 0.0 0.00 0.00 0.00 55 1015.7
20260906025804 75 37 0.0 0.0 0.00 0.00 0.00 53 1015.7
20260906025306 75 28 0.0 0.0 0.00 0.00 0.00 53 1015.6
20260906024804 74 356 0.0 0.0 0.00 0.00 0.00 53 1015.6
20260906024304 74 358 0.0 0.0 0.00 0.00 0.00 53 1015.6
20260906023803 74 8 0.0 0.0 0.00 0.00 0.00 54 1015.6
20260906022804 74 23 0.0 0.0 0.00 0.00 0.00 55 1015.7
20260906022306 74 119 0.0 0.0 0.00 0.00 0.00 55 1015.7
20260906021804 74 110 0.0 0.0 0.00 0.00 0.00 55 1015.7
20260906021304 73 176 0.0 0.0 0.00 0.00 0.00 54 1015.8
20260906020804 73 178 0.0 0.0 0.00 0.00 0.00 56 1015.7
20260906020304 73 178 0.0 0.0 0.00 0.00 0.00 58 1015.7
20260906015804 73 133 0.0 0.0 0.00 0.00 0.00 60 1015.7
20260906015306 73 95 0.0 0.0 0.00 0.00 0.00 61 1015.8
20260906014804 73 84 0.0 0.0 0.00 0.00 0.00 63 1015.8
20260906014304 74 105 0.0 0.0 0.00 0.00 0.00 64 1015.8
20260906013803 74 36 0.0 0.0 0.00 0.00 0.00 64 1015.8
20260906012804 74 40 0.0 0.0 0.00 0.00 0.00 63 1015.9
20260906012306 74 59 0.0 0.0 0.00 0.00 0.00 63 1015.9
20260906011804 74 76 0.0 0.0 0.00 0.00 0.00 64 1016.0
20260906010304 74 62 0.0 0.0 0.00 0.00 0.00 64 1016.0
20260906005804 74 30 0.0 0.0 0.00 0.00 0.00 64 1015.9
20260906005306 74 322 0.0 0.0 0.00 0.00 0.00 64 1016.0
20260906004806 74 56 0.0 0.0 0.00 0.00 0.00 64 1016.0
20260906003806 74 36 0.0 0.0 0.00 0.00 0.00 64 1016.0
20260906003306 74 143 0.0 0.0 0.00 0.00 0.00 65 1016.0
20260906002806 74 198 0.0 0.0 0.00 0.00 0.00 65 1016.0
20260906002306 74 221 0.0 0.0 0.00 0.00 0.00 65 1016.0
20260906001806 74 214 0.0 0.0 0.00 0.00 0.00 65 1016.0
20260906001306 74 12 0.0 0.0 0.00 0.00 0.00 65 1016.0
20260906000806 74 103 0.0 0.0 0.00 0.00 0.00 64 1016.1
20260905235806 74 52 0.0 0.0 0.00 0.00 0.00 62 1016.2
20260905235307 74 176 0.0 0.0 0.00 0.00 0.00 61 1016.2
20260905234806 74 158 0.0 0.0 0.00 0.00 0.00 60 1016.2
20260905234306 74 233 0.0 0.0 0.00 0.00 0.00 61 1016.2
20260905233806 74 233 0.0 0.0 0.00 0.00 0.00 61 1016.1
20260905233306 74 233 0.0 0.0 0.00 0.00 0.00 62 1016.2
20260905232807 74 233 0.0 0.0 0.00 0.00 0.00 62 1016.2
20260905232307 75 233 0.0 0.0 0.00 0.00 0.00 62 1016.3
20260905231806 75 212 0.0 0.0 0.00 0.00 0.00 62 1016.4
20260905230305 75 141 0.0 0.0 0.00 0.00 0.00 62 1016.5
20260905225806 75 145 0.0 0.0 0.00 0.00 0.00 62 1016.4
20260905224306 75 59 0.0 0.0 0.00 0.00 0.00 61 1016.4
20260905223806 75 228 0.0 0.0 0.00 0.00 0.00 61 1016.5
20260905223306 75 228 0.0 0.0 0.00 0.00 0.00 61 1016.5
20260905222807 75 227 0.0 0.0 0.00 0.00 0.00 61 1016.4
20260905221306 75 226 0.0 0.0 0.00 0.00 0.00 62 1016.4
20260905220827 76 180 0.0 0.0 0.00 0.00 0.00 62 1016.4
20260905215805 76 233 0.0 0.0 0.00 0.00 0.00 62 1016.5
20260905214805 76 231 0.0 0.0 0.00 0.00 0.00 61 1016.5
20260905214306 76 225 0.0 0.0 0.00 0.00 0.00 61 1016.4
20260905213805 76 199 0.0 0.0 0.00 0.00 0.00 61 1016.4
20260905213306 76 163 0.0 0.0 0.00 0.00 0.00 60 1016.4
20260905212806 76 125 0.0 0.0 0.00 0.00 0.00 60 1016.4
20260905212307 76 84 0.0 0.0 0.00 0.00 0.00 60 1016.4
20260905211805 77 35 0.0 0.0 0.00 0.00 0.00 60 1016.4
20260905210806 77 18 0.0 0.0 0.00 0.00 0.00 60 1016.4
20260905210306 77 18 0.0 0.0 0.00 0.00 0.00 60 1016.4
20260905205806 77 77 0.0 0.0 0.00 0.00 0.00 60 1016.4
20260905205306 77 205 0.0 0.0 0.00 0.00 0.00 60 1016.3
20260905204305 77 163 0.0 0.0 0.00 0.00 0.00 59 1016.3
20260905203806 77 218 0.0 0.0 0.00 0.00 0.00 58 1016.5
20260905203306 78 167 0.0 0.0 0.00 0.00 0.00 58 1016.4
20260905202806 78 38 0.0 0.0 0.00 0.00 0.00 57 1016.4
20260905202306 78 44 0.0 0.0 0.00 0.00 0.00 57 1016.4
20260905201806 78 42 0.0 0.0 0.00 0.00 0.00 56 1016.5
20260905200806 78 145 0.0 0.0 0.00 0.00 0.00 56 1016.4
20260905200305 78 156 0.0 0.0 0.00 0.00 0.00 56 1016.4
20260905195307 79 18 0.0 0.0 0.00 0.00 0.00 56 1016.5
20260905194806 79 3 0.0 0.0 0.00 0.00 0.00 56 1016.4
20260905194305 79 120 0.0 0.0 0.00 0.00 0.00 56 1016.4
20260905193305 79 52 0.0 0.0 0.00 0.00 0.00 56 1016.4
20260905192805 79 24 0.0 0.0 0.00 0.00 0.00 56 1016.2
20260905192306 79 15 0.0 0.0 0.00 0.00 0.00 55 1016.3
20260905191307 80 118 0.0 0.0 0.00 0.00 0.00 54 1016.2
20260905190306 80 68 0.0 0.0 0.00 0.00 0.00 54 1016.0
20260905185806 80 70 0.0 0.0 0.00 0.00 0.00 55 1015.9
20260905184805 80 64 0.0 0.0 0.00 0.00 0.00 57 1015.9
20260905184306 80 53 0.0 0.0 0.00 0.00 0.00 56 1015.8
20260905183805 81 161 0.0 0.0 0.00 0.00 0.00 56 1015.7
20260905183306 81 16 0.0 0.0 0.00 0.00 0.00 56 1015.7
20260905182805 81 22 0.0 0.0 0.00 0.00 0.00 55 1015.7
20260905181305 82 26 0.0 0.0 0.00 0.00 0.00 54 1015.5
20260905180805 82 73 0.0 0.0 0.00 0.00 0.00 54 1015.5
20260905180306 82 68 0.0 0.0 0.00 0.00 0.00 53 1015.5
20260905175806 82 26 0.0 0.0 0.00 0.00 0.00 52 1015.5
20260905175306 82 31 0.0 0.0 0.00 0.00 0.00 52 1015.5